sat.trackr.live / text

‹ back to catalog

KANYINI

NORAD 60556 · 2024-149CS

PAYLOAD ACTIVE UNKNOWN

§ Identity

Operator
Country
AUS
Launch date
2024-08-16
Launch site
AFWTR
Launch vehicle
Mass (kg)
RCS (m²)

External: N2YO · Heavens-Above · Gunter

§ Orbital elements

Epoch: 2026-09-22T17:28:36.855840Z

Period
92.26 min
Inclination
97.3672°
Eccentricity
0.0001625
Mean motion
15.60778934 rev/d
Perigee alt
384.3 km
Apogee alt
386.5 km
Semi-major
6,763.5 km
B*
5.4297e-4
RAAN
355.7937°
Arg perigee
220.5505°
Mean anomaly
139.5631°
Rev number
11,768

§ Raw data

KANYINI1 60556U 24149CS  26265.72820435  .00045243  00000+0  54297-3 0  99912 60556  97.3672 355.7937 0001625 220.5505 139.5631 15.60778934117681

JSON: /api/v1/satellites/60556 · /tle

For live sub-satellite position, see the globe view (requires WebGL).

§ Visibility from observer

Set your observer location to see the next 7 days of passes ≥ 10°. The values pass through the URL so the page stays shareable.

No JS? Fill the form by hand. The geolocation button needs JavaScript.

§ Radio — SatNOGS DB

ModeDescriptionDownlinkUplink
FSK Apogee TT&C Beacon 400.500 MHz

1 transmitter · refreshed weekly from db.satnogs.org